����,10���Ԉړ��ώZ�J��(mm),1���Ԉړ��ώZ�J��(mm),���J��(mm),�݌v�J��(mm)
2020-07-06T00:00:00+09:00,0,0,1,45.5
2020-07-06T00:01:00+09:00,0,0,0,45.5
2020-07-06T00:02:00+09:00,0,0,0,45.5
2020-07-06T00:03:00+09:00,0,0,0,45.5
2020-07-06T00:04:00+09:00,0,0,0,45.5
2020-07-06T00:05:00+09:00,0,0,0,45.5
2020-07-06T00:06:00+09:00,0,0,0,45.5
2020-07-06T00:07:00+09:00,0,0,0,45.5
2020-07-06T00:08:00+09:00,0,0,0,45.5
2020-07-06T00:09:00+09:00,0,0,0,45.5
2020-07-06T00:10:00+09:00,0,0,0,45.5
2020-07-06T00:11:00+09:00,0,0,0,45.5
2020-07-06T00:12:00+09:00,0,0,0,45.5
2020-07-06T00:13:00+09:00,0,0,0,45.5
2020-07-06T00:14:00+09:00,0,0,0,45.5
2020-07-06T00:15:00+09:00,0,0,0,45.5
2020-07-06T00:16:00+09:00,0,0,0,45.5
2020-07-06T00:17:00+09:00,0,0,0,45.5
2020-07-06T00:18:00+09:00,0,0,0,45.5
2020-07-06T00:19:00+09:00,0,0,0,45.5
2020-07-06T00:20:00+09:00,0,0,0,45.5
2020-07-06T00:21:00+09:00,0,0,0,45.5
2020-07-06T00:22:00+09:00,0,0,0,45.5
2020-07-06T00:23:00+09:00,0,0,0,45.5
2020-07-06T00:24:00+09:00,0,0,0,45.5
2020-07-06T00:25:00+09:00,0,0,0,45.5
2020-07-06T00:26:00+09:00,0,0,0,45.5
2020-07-06T00:27:00+09:00,0,0,0,45.5
2020-07-06T00:28:00+09:00,0,0,0,45.5
2020-07-06T00:29:00+09:00,0,0,0,45.5
2020-07-06T00:30:00+09:00,0,0,0,45.5
2020-07-06T00:31:00+09:00,0,0,0,45.5
2020-07-06T00:32:00+09:00,0,0,0,45.5
2020-07-06T00:33:00+09:00,0,0,0,45.5
2020-07-06T00:34:00+09:00,0,0,0,45.5
2020-07-06T00:35:00+09:00,0,0,0,45.5
2020-07-06T00:36:00+09:00,0,0,0,45.5
2020-07-06T00:37:00+09:00,0,0,0,45.5
2020-07-06T00:38:00+09:00,0,0,0,45.5
2020-07-06T00:39:00+09:00,0,0,0,45.5
2020-07-06T00:40:00+09:00,0,0,0,45.5
2020-07-06T00:41:00+09:00,0,0,0,45.5
2020-07-06T00:42:00+09:00,0,0,0,45.5
2020-07-06T00:43:00+09:00,0,0,0,45.5
2020-07-06T00:44:00+09:00,0,0,0,45.5
2020-07-06T00:45:00+09:00,0,0,0,45.5
2020-07-06T00:46:00+09:00,0,0,0,45.5
2020-07-06T00:47:00+09:00,0,0,0,45.5
2020-07-06T00:48:00+09:00,0,0,0,45.5
2020-07-06T00:49:00+09:00,0,0,0,45.5
2020-07-06T00:50:00+09:00,0,0,0,45.5
2020-07-06T00:51:00+09:00,0,0,0,45.5
2020-07-06T00:52:00+09:00,0,0,0,45.5
2020-07-06T00:53:00+09:00,0,0,0,45.5
2020-07-06T00:54:00+09:00,0,0,0,45.5
2020-07-06T00:55:00+09:00,0,0,0,45.5
2020-07-06T00:56:00+09:00,0,0,0,45.5
2020-07-06T00:57:00+09:00,0,0,0,45.5
2020-07-06T00:58:00+09:00,0,0,0,45.5
2020-07-06T00:59:00+09:00,0,0,0,45.5
2020-07-06T01:00:00+09:00,0,0,0,45.5
2020-07-06T01:01:00+09:00,0,0,0,45.5
2020-07-06T01:02:00+09:00,0,0,0,45.5
2020-07-06T01:03:00+09:00,0,0,0,45.5
2020-07-06T01:04:00+09:00,0,0,0,45.5
2020-07-06T01:05:00+09:00,0,0,0,45.5
2020-07-06T01:06:00+09:00,0,0,0,45.5
2020-07-06T01:07:00+09:00,0,0,0,45.5
2020-07-06T01:08:00+09:00,0,0,0,45.5
2020-07-06T01:09:00+09:00,0,0,0,45.5
2020-07-06T01:10:00+09:00,0,0,0,45.5
2020-07-06T01:11:00+09:00,0,0,0,45.5
2020-07-06T01:12:00+09:00,0,0,0,45.5
2020-07-06T01:13:00+09:00,0,0,0,45.5
2020-07-06T01:14:00+09:00,0,0,0,45.5
2020-07-06T01:15:00+09:00,0,0,0,45.5
2020-07-06T01:16:00+09:00,0,0,0,45.5
2020-07-06T01:17:00+09:00,0,0,0,45.5
2020-07-06T01:18:00+09:00,0,0,0,45.5
2020-07-06T01:19:00+09:00,0,0,0,45.5
2020-07-06T01:20:00+09:00,0,0,0,45.5
2020-07-06T01:21:00+09:00,0,0,0,45.5
2020-07-06T01:22:00+09:00,0,0,0,45.5
2020-07-06T01:23:00+09:00,0,0,0,45.5
2020-07-06T01:24:00+09:00,0.5,0.5,0.5,46
2020-07-06T01:25:00+09:00,0.5,0.5,0.5,46
2020-07-06T01:26:00+09:00,0.5,0.5,0.5,46
2020-07-06T01:27:00+09:00,0.5,0.5,0.5,46
2020-07-06T01:28:00+09:00,0.5,0.5,0.5,46
2020-07-06T01:29:00+09:00,0.5,0.5,0.5,46
2020-07-06T01:30:00+09:00,0.5,0.5,0.5,46
2020-07-06T01:31:00+09:00,1,1,1,46.5
2020-07-06T01:32:00+09:00,1,1,1,46.5
2020-07-06T01:33:00+09:00,1,1,1,46.5
2020-07-06T01:34:00+09:00,0.5,1,1,46.5
2020-07-06T01:35:00+09:00,0.5,1,1,46.5
2020-07-06T01:36:00+09:00,0.5,1,1,46.5
2020-07-06T01:37:00+09:00,1,1.5,1.5,47
2020-07-06T01:38:00+09:00,1,1.5,1.5,47
2020-07-06T01:39:00+09:00,1,1.5,1.5,47
2020-07-06T01:40:00+09:00,1,1.5,1.5,47
2020-07-06T01:41:00+09:00,0.5,1.5,1.5,47
2020-07-06T01:42:00+09:00,0.5,1.5,1.5,47
2020-07-06T01:43:00+09:00,0.5,1.5,1.5,47
2020-07-06T01:44:00+09:00,0.5,1.5,1.5,47
2020-07-06T01:45:00+09:00,1,2,2,47.5
2020-07-06T01:46:00+09:00,1,2,2,47.5
2020-07-06T01:47:00+09:00,0.5,2,2,47.5
2020-07-06T01:48:00+09:00,0.5,2,2,47.5
2020-07-06T01:49:00+09:00,0.5,2,2,47.5
2020-07-06T01:50:00+09:00,0.5,2,2,47.5
2020-07-06T01:51:00+09:00,0.5,2,2,47.5
2020-07-06T01:52:00+09:00,0.5,2,2,47.5
2020-07-06T01:53:00+09:00,0.5,2,2,47.5
2020-07-06T01:54:00+09:00,1,2.5,2.5,48
2020-07-06T01:55:00+09:00,0.5,2.5,2.5,48
2020-07-06T01:56:00+09:00,0.5,2.5,2.5,48
2020-07-06T01:57:00+09:00,0.5,2.5,2.5,48
2020-07-06T01:58:00+09:00,0.5,2.5,2.5,48
2020-07-06T01:59:00+09:00,0.5,2.5,2.5,48
2020-07-06T02:00:00+09:00,0.5,2.5,2.5,48
2020-07-06T02:01:00+09:00,0.5,2.5,2.5,48
2020-07-06T02:02:00+09:00,0.5,2.5,2.5,48
2020-07-06T02:03:00+09:00,0.5,2.5,2.5,48
2020-07-06T02:04:00+09:00,0,2.5,2.5,48
2020-07-06T02:05:00+09:00,0,2.5,2.5,48
2020-07-06T02:06:00+09:00,0,2.5,2.5,48
2020-07-06T02:07:00+09:00,0,2.5,2.5,48
2020-07-06T02:08:00+09:00,0,2.5,2.5,48
2020-07-06T02:09:00+09:00,0,2.5,2.5,48
2020-07-06T02:10:00+09:00,0,2.5,2.5,48
2020-07-06T02:11:00+09:00,0,2.5,2.5,48
2020-07-06T02:12:00+09:00,0,2.5,2.5,48
2020-07-06T02:13:00+09:00,0,2.5,2.5,48
2020-07-06T02:14:00+09:00,0,2.5,2.5,48
2020-07-06T02:15:00+09:00,0,2.5,2.5,48
2020-07-06T02:16:00+09:00,0,2.5,2.5,48
2020-07-06T02:17:00+09:00,0,2.5,2.5,48
2020-07-06T02:18:00+09:00,0,2.5,2.5,48
2020-07-06T02:19:00+09:00,0,2.5,2.5,48
2020-07-06T02:20:00+09:00,0,2.5,2.5,48
2020-07-06T02:21:00+09:00,0,2.5,2.5,48
2020-07-06T02:22:00+09:00,0,2.5,2.5,48
2020-07-06T02:23:00+09:00,0,2.5,2.5,48
2020-07-06T02:24:00+09:00,0,2,2.5,48
2020-07-06T02:25:00+09:00,0,2,2.5,48
2020-07-06T02:26:00+09:00,0,2,2.5,48
2020-07-06T02:27:00+09:00,0,2,2.5,48
2020-07-06T02:28:00+09:00,0,2,2.5,48
2020-07-06T02:29:00+09:00,0,2,2.5,48
2020-07-06T02:30:00+09:00,0,2,2.5,48
2020-07-06T02:31:00+09:00,0,1.5,2.5,48
2020-07-06T02:32:00+09:00,0.5,2,3,48.5
2020-07-06T02:33:00+09:00,0.5,2,3,48.5
2020-07-06T02:34:00+09:00,0.5,2,3,48.5
2020-07-06T02:35:00+09:00,0.5,2,3,48.5
2020-07-06T02:36:00+09:00,0.5,2,3,48.5
2020-07-06T02:37:00+09:00,0.5,1.5,3,48.5
2020-07-06T02:38:00+09:00,0.5,1.5,3,48.5
2020-07-06T02:39:00+09:00,0.5,1.5,3,48.5
2020-07-06T02:40:00+09:00,0.5,1.5,3,48.5
2020-07-06T02:41:00+09:00,0.5,1.5,3,48.5
2020-07-06T02:42:00+09:00,0,1.5,3,48.5
2020-07-06T02:43:00+09:00,0,1.5,3,48.5
2020-07-06T02:44:00+09:00,0,1.5,3,48.5
2020-07-06T02:45:00+09:00,0,1,3,48.5
2020-07-06T02:46:00+09:00,0,1,3,48.5
2020-07-06T02:47:00+09:00,0,1,3,48.5
2020-07-06T02:48:00+09:00,0,1,3,48.5
2020-07-06T02:49:00+09:00,0,1,3,48.5
2020-07-06T02:50:00+09:00,0,1,3,48.5
2020-07-06T02:51:00+09:00,0,1,3,48.5
2020-07-06T02:52:00+09:00,0,1,3,48.5
2020-07-06T02:53:00+09:00,0,1,3,48.5
2020-07-06T02:54:00+09:00,0,0.5,3,48.5
2020-07-06T02:55:00+09:00,0,0.5,3,48.5
2020-07-06T02:56:00+09:00,0,0.5,3,48.5
2020-07-06T02:57:00+09:00,0,0.5,3,48.5
2020-07-06T02:58:00+09:00,0,0.5,3,48.5
2020-07-06T02:59:00+09:00,0,0.5,3,48.5
2020-07-06T03:00:00+09:00,0,0.5,3,48.5
2020-07-06T03:01:00+09:00,0,0.5,3,48.5
2020-07-06T03:02:00+09:00,0,0.5,3,48.5
2020-07-06T03:03:00+09:00,0,0.5,3,48.5
2020-07-06T03:04:00+09:00,0,0.5,3,48.5
2020-07-06T03:05:00+09:00,0,0.5,3,48.5
2020-07-06T03:06:00+09:00,0,0.5,3,48.5
2020-07-06T03:07:00+09:00,0,0.5,3,48.5
2020-07-06T03:08:00+09:00,0,0.5,3,48.5
2020-07-06T03:09:00+09:00,0.5,1,3.5,49
2020-07-06T03:10:00+09:00,0.5,1,3.5,49
2020-07-06T03:11:00+09:00,0.5,1,3.5,49
2020-07-06T03:12:00+09:00,0.5,1,3.5,49
2020-07-06T03:13:00+09:00,0.5,1,3.5,49
2020-07-06T03:14:00+09:00,0.5,1,3.5,49
2020-07-06T03:15:00+09:00,0.5,1,3.5,49
2020-07-06T03:16:00+09:00,0.5,1,3.5,49
2020-07-06T03:17:00+09:00,0.5,1,3.5,49
2020-07-06T03:18:00+09:00,0.5,1,3.5,49
2020-07-06T03:19:00+09:00,0,1,3.5,49
2020-07-06T03:20:00+09:00,0,1,3.5,49
2020-07-06T03:21:00+09:00,0,1,3.5,49
2020-07-06T03:22:00+09:00,0,1,3.5,49
2020-07-06T03:23:00+09:00,0,1,3.5,49
2020-07-06T03:24:00+09:00,0,1,3.5,49
2020-07-06T03:25:00+09:00,0,1,3.5,49
2020-07-06T03:26:00+09:00,0.5,1.5,4,49.5
2020-07-06T03:27:00+09:00,0.5,1.5,4,49.5
2020-07-06T03:28:00+09:00,0.5,1.5,4,49.5
2020-07-06T03:29:00+09:00,0.5,1.5,4,49.5
2020-07-06T03:30:00+09:00,0.5,1.5,4,49.5
2020-07-06T03:31:00+09:00,0.5,1.5,4,49.5
2020-07-06T03:32:00+09:00,0.5,1,4,49.5
2020-07-06T03:33:00+09:00,0.5,1,4,49.5
2020-07-06T03:34:00+09:00,0.5,1,4,49.5
2020-07-06T03:35:00+09:00,0.5,1,4,49.5
2020-07-06T03:36:00+09:00,0,1,4,49.5
2020-07-06T03:37:00+09:00,0,1,4,49.5
2020-07-06T03:38:00+09:00,0,1,4,49.5
2020-07-06T03:39:00+09:00,0,1,4,49.5
2020-07-06T03:40:00+09:00,0,1,4,49.5
2020-07-06T03:41:00+09:00,0,1,4,49.5
2020-07-06T03:42:00+09:00,0,1,4,49.5
2020-07-06T03:43:00+09:00,0,1,4,49.5
2020-07-06T03:44:00+09:00,0,1,4,49.5
2020-07-06T03:45:00+09:00,0.5,1.5,4.5,50
2020-07-06T03:46:00+09:00,0.5,1.5,4.5,50
2020-07-06T03:47:00+09:00,0.5,1.5,4.5,50
2020-07-06T03:48:00+09:00,0.5,1.5,4.5,50
2020-07-06T03:49:00+09:00,0.5,1.5,4.5,50
2020-07-06T03:50:00+09:00,0.5,1.5,4.5,50
2020-07-06T03:51:00+09:00,1,2,5,50.5
2020-07-06T03:52:00+09:00,1,2,5,50.5
2020-07-06T03:53:00+09:00,1.5,2.5,5.5,51
2020-07-06T03:54:00+09:00,1.5,2.5,5.5,51
2020-07-06T03:55:00+09:00,1,2.5,5.5,51
2020-07-06T03:56:00+09:00,1,2.5,5.5,51
2020-07-06T03:57:00+09:00,1,2.5,5.5,51
2020-07-06T03:58:00+09:00,1.5,3,6,51.5
2020-07-06T03:59:00+09:00,1.5,3,6,51.5
2020-07-06T04:00:00+09:00,1.5,3,6,51.5
2020-07-06T04:01:00+09:00,1,3,6,51.5
2020-07-06T04:02:00+09:00,1.5,3.5,6.5,52
2020-07-06T04:03:00+09:00,1,3.5,6.5,52
2020-07-06T04:04:00+09:00,1,3.5,6.5,52
2020-07-06T04:05:00+09:00,1,3.5,6.5,52
2020-07-06T04:06:00+09:00,1.5,4,7,52.5
2020-07-06T04:07:00+09:00,1.5,4,7,52.5
2020-07-06T04:08:00+09:00,1,4,7,52.5
2020-07-06T04:09:00+09:00,1,3.5,7,52.5
2020-07-06T04:10:00+09:00,1.5,4,7.5,53
2020-07-06T04:11:00+09:00,1.5,4,7.5,53
2020-07-06T04:12:00+09:00,1,4,7.5,53
2020-07-06T04:13:00+09:00,1.5,4.5,8,53.5
2020-07-06T04:14:00+09:00,1.5,4.5,8,53.5
2020-07-06T04:15:00+09:00,1.5,4.5,8,53.5
2020-07-06T04:16:00+09:00,1,4.5,8,53.5
2020-07-06T04:17:00+09:00,1,4.5,8,53.5
2020-07-06T04:18:00+09:00,1,4.5,8,53.5
2020-07-06T04:19:00+09:00,1.5,5,8.5,54
2020-07-06T04:20:00+09:00,1,5,8.5,54
2020-07-06T04:21:00+09:00,1,5,8.5,54
2020-07-06T04:22:00+09:00,1,5,8.5,54
2020-07-06T04:23:00+09:00,0.5,5,8.5,54
2020-07-06T04:24:00+09:00,0.5,5,8.5,54
2020-07-06T04:25:00+09:00,0.5,5,8.5,54
2020-07-06T04:26:00+09:00,1,5,9,54.5
2020-07-06T04:27:00+09:00,1,5,9,54.5
2020-07-06T04:28:00+09:00,1.5,5.5,9.5,55
2020-07-06T04:29:00+09:00,1,5.5,9.5,55
2020-07-06T04:30:00+09:00,1,5.5,9.5,55
2020-07-06T04:31:00+09:00,1,5.5,9.5,55
2020-07-06T04:32:00+09:00,1.5,6,10,55.5
2020-07-06T04:33:00+09:00,1.5,6,10,55.5
2020-07-06T04:34:00+09:00,1.5,6,10,55.5
2020-07-06T04:35:00+09:00,1.5,6,10,55.5
2020-07-06T04:36:00+09:00,1,6,10,55.5
2020-07-06T04:37:00+09:00,1.5,6.5,10.5,56
2020-07-06T04:38:00+09:00,1,6.5,10.5,56
2020-07-06T04:39:00+09:00,1,6.5,10.5,56
2020-07-06T04:40:00+09:00,1,6.5,10.5,56
2020-07-06T04:41:00+09:00,1,6.5,10.5,56
2020-07-06T04:42:00+09:00,0.5,6.5,10.5,56
2020-07-06T04:43:00+09:00,0.5,6.5,10.5,56
2020-07-06T04:44:00+09:00,0.5,6.5,10.5,56
2020-07-06T04:45:00+09:00,0.5,6,10.5,56
2020-07-06T04:46:00+09:00,1,6.5,11,56.5
2020-07-06T04:47:00+09:00,0.5,6.5,11,56.5
2020-07-06T04:48:00+09:00,0.5,6.5,11,56.5
2020-07-06T04:49:00+09:00,0.5,6.5,11,56.5
2020-07-06T04:50:00+09:00,0.5,6.5,11,56.5
2020-07-06T04:51:00+09:00,0.5,6,11,56.5
2020-07-06T04:52:00+09:00,0.5,6,11,56.5
2020-07-06T04:53:00+09:00,0.5,5.5,11,56.5
2020-07-06T04:54:00+09:00,0.5,5.5,11,56.5
2020-07-06T04:55:00+09:00,0.5,5.5,11,56.5
2020-07-06T04:56:00+09:00,0.5,6,11.5,57
2020-07-06T04:57:00+09:00,0.5,6,11.5,57
2020-07-06T04:58:00+09:00,0.5,5.5,11.5,57
2020-07-06T04:59:00+09:00,0.5,5.5,11.5,57
2020-07-06T05:00:00+09:00,0.5,5.5,11.5,57
2020-07-06T05:01:00+09:00,0.5,5.5,11.5,57
2020-07-06T05:02:00+09:00,0.5,5,11.5,57
2020-07-06T05:03:00+09:00,0.5,5,11.5,57
2020-07-06T05:04:00+09:00,0.5,5,11.5,57
2020-07-06T05:05:00+09:00,0.5,5,11.5,57
2020-07-06T05:06:00+09:00,0,4.5,11.5,57
2020-07-06T05:07:00+09:00,0,4.5,11.5,57
2020-07-06T05:08:00+09:00,0.5,5,12,57.5
2020-07-06T05:09:00+09:00,0.5,5,12,57.5
2020-07-06T05:10:00+09:00,0.5,4.5,12,57.5
2020-07-06T05:11:00+09:00,0.5,4.5,12,57.5
2020-07-06T05:12:00+09:00,0.5,4.5,12,57.5
2020-07-06T05:13:00+09:00,0.5,4,12,57.5
2020-07-06T05:14:00+09:00,0.5,4,12,57.5
2020-07-06T05:15:00+09:00,0.5,4,12,57.5
2020-07-06T05:16:00+09:00,0.5,4,12,57.5
2020-07-06T05:17:00+09:00,0.5,4,12,57.5
2020-07-06T05:18:00+09:00,0.5,4.5,12.5,58
2020-07-06T05:19:00+09:00,0.5,4,12.5,58
2020-07-06T05:20:00+09:00,0.5,4,12.5,58
2020-07-06T05:21:00+09:00,0.5,4,12.5,58
2020-07-06T05:22:00+09:00,0.5,4,12.5,58
2020-07-06T05:23:00+09:00,0.5,4,12.5,58
2020-07-06T05:24:00+09:00,0.5,4,12.5,58
2020-07-06T05:25:00+09:00,0.5,4,12.5,58
2020-07-06T05:26:00+09:00,0.5,3.5,12.5,58
2020-07-06T05:27:00+09:00,0.5,3.5,12.5,58
2020-07-06T05:28:00+09:00,0,3,12.5,58
2020-07-06T05:29:00+09:00,0,3,12.5,58
2020-07-06T05:30:00+09:00,0,3,12.5,58
2020-07-06T05:31:00+09:00,0,3,12.5,58
2020-07-06T05:32:00+09:00,0,2.5,12.5,58
2020-07-06T05:33:00+09:00,0,2.5,12.5,58
2020-07-06T05:34:00+09:00,0,2.5,12.5,58
2020-07-06T05:35:00+09:00,0,2.5,12.5,58
2020-07-06T05:36:00+09:00,0,2.5,12.5,58
2020-07-06T05:37:00+09:00,0,2,12.5,58
2020-07-06T05:38:00+09:00,0,2,12.5,58
2020-07-06T05:39:00+09:00,0,2,12.5,58
2020-07-06T05:40:00+09:00,0,2,12.5,58
2020-07-06T05:41:00+09:00,0,2,12.5,58
2020-07-06T05:42:00+09:00,0,2,12.5,58
2020-07-06T05:43:00+09:00,0,2,12.5,58
2020-07-06T05:44:00+09:00,0,2,12.5,58
2020-07-06T05:45:00+09:00,0,2,12.5,58
2020-07-06T05:46:00+09:00,0.5,2,13,58.5
2020-07-06T05:47:00+09:00,0.5,2,13,58.5
2020-07-06T05:48:00+09:00,0.5,2,13,58.5
2020-07-06T05:49:00+09:00,0.5,2,13,58.5
2020-07-06T05:50:00+09:00,0.5,2,13,58.5
2020-07-06T05:51:00+09:00,0.5,2,13,58.5
2020-07-06T05:52:00+09:00,0.5,2,13,58.5
2020-07-06T05:53:00+09:00,0.5,2,13,58.5
2020-07-06T05:54:00+09:00,0.5,2,13,58.5
2020-07-06T05:55:00+09:00,0.5,2,13,58.5
2020-07-06T05:56:00+09:00,0,1.5,13,58.5
2020-07-06T05:57:00+09:00,0,1.5,13,58.5
2020-07-06T05:58:00+09:00,0,1.5,13,58.5
2020-07-06T05:59:00+09:00,0,1.5,13,58.5
2020-07-06T06:00:00+09:00,0,1.5,13,58.5
2020-07-06T06:01:00+09:00,0,1.5,13,58.5
2020-07-06T06:02:00+09:00,0,1.5,13,58.5
2020-07-06T06:03:00+09:00,0,1.5,13,58.5
2020-07-06T06:04:00+09:00,0,1.5,13,58.5
2020-07-06T06:05:00+09:00,0,1.5,13,58.5
2020-07-06T06:06:00+09:00,0,1.5,13,58.5
2020-07-06T06:07:00+09:00,0,1.5,13,58.5
2020-07-06T06:08:00+09:00,0,1,13,58.5
2020-07-06T06:09:00+09:00,0,1,13,58.5
2020-07-06T06:10:00+09:00,0,1,13,58.5
2020-07-06T06:11:00+09:00,0,1,13,58.5
2020-07-06T06:12:00+09:00,0,1,13,58.5
2020-07-06T06:13:00+09:00,0,1,13,58.5
2020-07-06T06:14:00+09:00,0,1,13,58.5
2020-07-06T06:15:00+09:00,0,1,13,58.5
2020-07-06T06:16:00+09:00,0,1,13,58.5
2020-07-06T06:17:00+09:00,0.5,1.5,13.5,59
2020-07-06T06:18:00+09:00,0.5,1,13.5,59
2020-07-06T06:19:00+09:00,0.5,1,13.5,59
2020-07-06T06:20:00+09:00,0.5,1,13.5,59
2020-07-06T06:21:00+09:00,0.5,1,13.5,59
2020-07-06T06:22:00+09:00,0.5,1,13.5,59
2020-07-06T06:23:00+09:00,0.5,1,13.5,59
2020-07-06T06:24:00+09:00,0.5,1,13.5,59
2020-07-06T06:25:00+09:00,0.5,1,13.5,59
2020-07-06T06:26:00+09:00,0.5,1,13.5,59
2020-07-06T06:27:00+09:00,0,1,13.5,59
2020-07-06T06:28:00+09:00,0,1,13.5,59
2020-07-06T06:29:00+09:00,0,1,13.5,59
2020-07-06T06:30:00+09:00,0,1,13.5,59
2020-07-06T06:31:00+09:00,0,1,13.5,59
2020-07-06T06:32:00+09:00,0,1,13.5,59
2020-07-06T06:33:00+09:00,0,1,13.5,59
2020-07-06T06:34:00+09:00,0,1,13.5,59
2020-07-06T06:35:00+09:00,0,1,13.5,59
2020-07-06T06:36:00+09:00,0,1,13.5,59
2020-07-06T06:37:00+09:00,0,1,13.5,59
2020-07-06T06:38:00+09:00,0,1,13.5,59
2020-07-06T06:39:00+09:00,0,1,13.5,59
2020-07-06T06:40:00+09:00,0,1,13.5,59
2020-07-06T06:41:00+09:00,0,1,13.5,59
2020-07-06T06:42:00+09:00,0,1,13.5,59
2020-07-06T06:43:00+09:00,0,1,13.5,59
2020-07-06T06:44:00+09:00,0,1,13.5,59
2020-07-06T06:45:00+09:00,0,1,13.5,59
2020-07-06T06:46:00+09:00,0,0.5,13.5,59
2020-07-06T06:47:00+09:00,0,0.5,13.5,59
2020-07-06T06:48:00+09:00,0,0.5,13.5,59
2020-07-06T06:49:00+09:00,0,0.5,13.5,59
2020-07-06T06:50:00+09:00,0,0.5,13.5,59
2020-07-06T06:51:00+09:00,0,0.5,13.5,59
2020-07-06T06:52:00+09:00,0,0.5,13.5,59
2020-07-06T06:53:00+09:00,0,0.5,13.5,59
2020-07-06T06:54:00+09:00,0,0.5,13.5,59
2020-07-06T06:55:00+09:00,0,0.5,13.5,59
2020-07-06T06:56:00+09:00,0,0.5,13.5,59
2020-07-06T06:57:00+09:00,0,0.5,13.5,59
2020-07-06T06:58:00+09:00,0,0.5,13.5,59
2020-07-06T06:59:00+09:00,0,0.5,13.5,59
2020-07-06T07:00:00+09:00,0,0.5,13.5,59
2020-07-06T07:01:00+09:00,0,0.5,13.5,59
2020-07-06T07:02:00+09:00,0,0.5,13.5,59
2020-07-06T07:03:00+09:00,0,0.5,13.5,59
2020-07-06T07:04:00+09:00,0,0.5,13.5,59
2020-07-06T07:05:00+09:00,0,0.5,13.5,59
2020-07-06T07:06:00+09:00,0,0.5,13.5,59
2020-07-06T07:07:00+09:00,0.5,1,14,59.5
2020-07-06T07:08:00+09:00,0.5,1,14,59.5
2020-07-06T07:09:00+09:00,0.5,1,14,59.5
2020-07-06T07:10:00+09:00,0.5,1,14,59.5
2020-07-06T07:11:00+09:00,0.5,1,14,59.5
2020-07-06T07:12:00+09:00,0.5,1,14,59.5
2020-07-06T07:13:00+09:00,0.5,1,14,59.5
2020-07-06T07:14:00+09:00,0.5,1,14,59.5
2020-07-06T07:15:00+09:00,0.5,1,14,59.5
2020-07-06T07:16:00+09:00,0.5,1,14,59.5
2020-07-06T07:17:00+09:00,0,0.5,14,59.5
2020-07-06T07:18:00+09:00,0,0.5,14,59.5
2020-07-06T07:19:00+09:00,0,0.5,14,59.5
2020-07-06T07:20:00+09:00,0,0.5,14,59.5
2020-07-06T07:21:00+09:00,0,0.5,14,59.5
2020-07-06T07:22:00+09:00,0,0.5,14,59.5
2020-07-06T07:23:00+09:00,0,0.5,14,59.5
2020-07-06T07:24:00+09:00,0,0.5,14,59.5
2020-07-06T07:25:00+09:00,0,0.5,14,59.5
2020-07-06T07:26:00+09:00,0,0.5,14,59.5
2020-07-06T07:27:00+09:00,0,0.5,14,59.5
2020-07-06T07:28:00+09:00,0,0.5,14,59.5
2020-07-06T07:29:00+09:00,0,0.5,14,59.5
2020-07-06T07:30:00+09:00,0,0.5,14,59.5
2020-07-06T07:31:00+09:00,0,0.5,14,59.5
2020-07-06T07:32:00+09:00,0,0.5,14,59.5
2020-07-06T07:33:00+09:00,0,0.5,14,59.5
2020-07-06T07:34:00+09:00,0,0.5,14,59.5
2020-07-06T07:35:00+09:00,0,0.5,14,59.5
2020-07-06T07:36:00+09:00,0,0.5,14,59.5
2020-07-06T07:37:00+09:00,0,0.5,14,59.5
2020-07-06T07:38:00+09:00,0,0.5,14,59.5
2020-07-06T07:39:00+09:00,0,0.5,14,59.5
2020-07-06T07:40:00+09:00,0,0.5,14,59.5
2020-07-06T07:41:00+09:00,0,0.5,14,59.5
2020-07-06T07:42:00+09:00,0,0.5,14,59.5
2020-07-06T07:43:00+09:00,0,0.5,14,59.5
2020-07-06T07:44:00+09:00,0,0.5,14,59.5
2020-07-06T07:45:00+09:00,0,0.5,14,59.5
2020-07-06T07:46:00+09:00,0,0.5,14,59.5
2020-07-06T07:47:00+09:00,0,0.5,14,59.5
2020-07-06T07:48:00+09:00,0,0.5,14,59.5
2020-07-06T07:49:00+09:00,0,0.5,14,59.5
2020-07-06T07:50:00+09:00,0,0.5,14,59.5
2020-07-06T07:51:00+09:00,0,0.5,14,59.5
2020-07-06T07:52:00+09:00,0,0.5,14,59.5
2020-07-06T07:53:00+09:00,0,0.5,14,59.5
2020-07-06T07:54:00+09:00,0,0.5,14,59.5
2020-07-06T07:55:00+09:00,0,0.5,14,59.5
2020-07-06T07:56:00+09:00,0,0.5,14,59.5
2020-07-06T07:57:00+09:00,0,0.5,14,59.5
2020-07-06T07:58:00+09:00,0,0.5,14,59.5
2020-07-06T07:59:00+09:00,0,0.5,14,59.5
2020-07-06T08:00:00+09:00,0,0.5,14,59.5
2020-07-06T08:01:00+09:00,0,0.5,14,59.5
2020-07-06T08:02:00+09:00,0,0.5,14,59.5
2020-07-06T08:03:00+09:00,0,0.5,14,59.5
2020-07-06T08:04:00+09:00,0,0.5,14,59.5
2020-07-06T08:05:00+09:00,0,0.5,14,59.5
2020-07-06T08:06:00+09:00,0,0.5,14,59.5
2020-07-06T08:07:00+09:00,0,0,14,59.5
2020-07-06T08:08:00+09:00,0,0,14,59.5
2020-07-06T08:09:00+09:00,0,0,14,59.5
2020-07-06T08:10:00+09:00,0,0,14,59.5
2020-07-06T08:11:00+09:00,0,0,14,59.5
2020-07-06T08:12:00+09:00,0,0,14,59.5
2020-07-06T08:13:00+09:00,0,0,14,59.5
2020-07-06T08:14:00+09:00,0,0,14,59.5
2020-07-06T08:15:00+09:00,0,0,14,59.5
2020-07-06T08:16:00+09:00,0,0,14,59.5
2020-07-06T08:17:00+09:00,0,0,14,59.5
2020-07-06T08:18:00+09:00,0,0,14,59.5
2020-07-06T08:19:00+09:00,0,0,14,59.5
2020-07-06T08:20:00+09:00,0,0,14,59.5
2020-07-06T08:21:00+09:00,0,0,14,59.5
2020-07-06T08:22:00+09:00,0,0,14,59.5
2020-07-06T08:23:00+09:00,0,0,14,59.5
2020-07-06T08:24:00+09:00,0,0,14,59.5
2020-07-06T08:25:00+09:00,0,0,14,59.5
2020-07-06T08:26:00+09:00,0,0,14,59.5
2020-07-06T08:27:00+09:00,0,0,14,59.5
2020-07-06T08:28:00+09:00,0,0,14,59.5
2020-07-06T08:29:00+09:00,0,0,14,59.5
2020-07-06T08:30:00+09:00,0,0,14,59.5
2020-07-06T08:31:00+09:00,0,0,14,59.5
2020-07-06T08:32:00+09:00,0,0,14,59.5
2020-07-06T08:33:00+09:00,0,0,14,59.5
2020-07-06T08:34:00+09:00,0,0,14,59.5
2020-07-06T08:35:00+09:00,0,0,14,59.5
2020-07-06T08:36:00+09:00,0,0,14,59.5
2020-07-06T08:37:00+09:00,0,0,14,59.5
2020-07-06T08:38:00+09:00,0,0,14,59.5
2020-07-06T08:39:00+09:00,0,0,14,59.5
2020-07-06T08:40:00+09:00,0,0,14,59.5
2020-07-06T08:41:00+09:00,0,0,14,59.5
2020-07-06T08:42:00+09:00,0,0,14,59.5
2020-07-06T08:43:00+09:00,0,0,14,59.5
2020-07-06T08:44:00+09:00,0,0,14,59.5
2020-07-06T08:45:00+09:00,0,0,14,59.5
2020-07-06T08:46:00+09:00,0,0,14,59.5
2020-07-06T08:47:00+09:00,0,0,14,59.5
2020-07-06T08:48:00+09:00,0,0,14,59.5
2020-07-06T08:49:00+09:00,0,0,14,59.5
2020-07-06T08:50:00+09:00,0,0,14,59.5
2020-07-06T08:51:00+09:00,0,0,14,59.5
2020-07-06T08:52:00+09:00,0,0,14,59.5
2020-07-06T08:53:00+09:00,0,0,14,59.5
2020-07-06T08:54:00+09:00,0,0,14,59.5
2020-07-06T08:55:00+09:00,0,0,14,59.5
2020-07-06T08:56:00+09:00,0,0,14,59.5
2020-07-06T08:57:00+09:00,0,0,14,59.5
2020-07-06T08:58:00+09:00,0,0,14,59.5
2020-07-06T08:59:00+09:00,0,0,14,59.5
2020-07-06T09:00:00+09:00,0,0,14,59.5
2020-07-06T09:01:00+09:00,0,0,14,59.5
2020-07-06T09:02:00+09:00,0,0,14,59.5
2020-07-06T09:03:00+09:00,0,0,14,59.5
2020-07-06T09:04:00+09:00,0,0,14,59.5
2020-07-06T09:05:00+09:00,0,0,14,59.5
2020-07-06T09:06:00+09:00,0,0,14,59.5
2020-07-06T09:07:00+09:00,0,0,14,59.5
2020-07-06T09:08:00+09:00,0,0,14,59.5
2020-07-06T09:09:00+09:00,0,0,14,59.5
2020-07-06T09:10:00+09:00,0,0,14,59.5
2020-07-06T09:11:00+09:00,0,0,14,59.5
2020-07-06T09:12:00+09:00,0,0,14,59.5
2020-07-06T09:13:00+09:00,0,0,14,59.5
2020-07-06T09:14:00+09:00,0,0,14,59.5
2020-07-06T09:15:00+09:00,0,0,14,59.5
2020-07-06T09:16:00+09:00,0,0,14,59.5
2020-07-06T09:17:00+09:00,0,0,14,59.5
2020-07-06T09:18:00+09:00,0,0,14,59.5
2020-07-06T09:19:00+09:00,0,0,14,59.5
2020-07-06T09:20:00+09:00,0,0,14,59.5
2020-07-06T09:21:00+09:00,0,0,14,59.5
2020-07-06T09:22:00+09:00,0,0,14,59.5
2020-07-06T09:23:00+09:00,0,0,14,59.5
2020-07-06T09:24:00+09:00,0,0,14,59.5
2020-07-06T09:25:00+09:00,0,0,14,59.5
2020-07-06T09:26:00+09:00,0,0,14,59.5
2020-07-06T09:27:00+09:00,0,0,14,59.5
2020-07-06T09:28:00+09:00,0,0,14,59.5
2020-07-06T09:29:00+09:00,0,0,14,59.5
2020-07-06T09:30:00+09:00,0,0,14,59.5
2020-07-06T09:31:00+09:00,0,0,14,59.5
2020-07-06T09:32:00+09:00,0,0,14,59.5
2020-07-06T09:33:00+09:00,0,0,14,59.5
2020-07-06T09:34:00+09:00,0,0,14,59.5
2020-07-06T09:35:00+09:00,0,0,14,59.5
2020-07-06T09:36:00+09:00,0,0,14,59.5
2020-07-06T09:37:00+09:00,0,0,14,59.5
2020-07-06T09:38:00+09:00,0,0,14,59.5
2020-07-06T09:39:00+09:00,0,0,14,59.5
2020-07-06T09:40:00+09:00,0,0,14,59.5
2020-07-06T09:41:00+09:00,0,0,14,59.5
2020-07-06T09:42:00+09:00,0,0,14,59.5
2020-07-06T09:43:00+09:00,0,0,14,59.5
2020-07-06T09:44:00+09:00,0,0,14,59.5
2020-07-06T09:45:00+09:00,0,0,14,59.5
2020-07-06T09:46:00+09:00,0,0,14,59.5
2020-07-06T09:47:00+09:00,0,0,14,59.5
2020-07-06T09:48:00+09:00,0,0,14,59.5
2020-07-06T09:49:00+09:00,0,0,14,59.5
2020-07-06T09:50:00+09:00,0,0,14,59.5
2020-07-06T09:51:00+09:00,0,0,14,59.5
2020-07-06T09:52:00+09:00,0,0,14,59.5
2020-07-06T09:53:00+09:00,0,0,14,59.5
2020-07-06T09:54:00+09:00,0,0,14,59.5
2020-07-06T09:55:00+09:00,0,0,14,59.5
2020-07-06T09:56:00+09:00,0,0,14,59.5
2020-07-06T09:57:00+09:00,0,0,14,59.5
2020-07-06T09:58:00+09:00,0,0,14,59.5
2020-07-06T09:59:00+09:00,0,0,14,59.5
2020-07-06T10:00:00+09:00,0,0,14,59.5
2020-07-06T10:01:00+09:00,0,0,14,59.5
2020-07-06T10:02:00+09:00,0,0,14,59.5
2020-07-06T10:03:00+09:00,0,0,14,59.5
2020-07-06T10:04:00+09:00,0,0,14,59.5
2020-07-06T10:05:00+09:00,0,0,14,59.5
2020-07-06T10:06:00+09:00,0,0,14,59.5
2020-07-06T10:07:00+09:00,0,0,14,59.5
2020-07-06T10:08:00+09:00,0,0,14,59.5
2020-07-06T10:09:00+09:00,0,0,14,59.5
2020-07-06T10:10:00+09:00,0,0,14,59.5
2020-07-06T10:11:00+09:00,0.5,0.5,14.5,60
2020-07-06T10:12:00+09:00,0.5,0.5,14.5,60
2020-07-06T10:13:00+09:00,0.5,0.5,14.5,60
2020-07-06T10:14:00+09:00,0.5,0.5,14.5,60
2020-07-06T10:15:00+09:00,0.5,0.5,14.5,60